Find Starlink 3273

NORAD ID: 50191 Int'l Des: 2021-125 Owner: SPXS Country: US Constellation: starlink operational
LEOCIRCULAR

Live-Position

3D-Globus wird geladen...

Über Starlink 3273

Beschreibung wird geladen...

Nächste Überflüge

Passes for default location (London). Set your location on the main map for personalized predictions.

Höhenverlauf

Loading altitude history...

Zweizeiliger Elementsatz

1 50191U 21125AM 26106.66842523 .00000165 00000-0 28445-4 0 9997
2 50191 53.2167 88.6252 0001306 81.0604 279.0536 15.08833775242188
Epoch: 16. Apr. 2026 • Age: 15 hours

Aktueller Status

Höhe 558.8 km
Geschwindigkeit 7.58 km/s
Subsatellitenpunkt -52.16°S, 21.02°E
Startdatum 18. Dez. 2021
Alter 4.3 years
Typ internet

Technische Details

Klassifizierung Payload
Masse 290.00 kg
Trockenmasse 270.00 kg
Gesamtmasse 290.00 kg
Länge 0.20 m
Durchmesser 2.80 m
Spannweite 9.00 m
Form Box + pan
Hersteller SPXS
Bus-Typ Starlink
Phasenstatus In Orbit
Besitzer/Staat SPXS/US

Most Searched